Location: Gunnison Valley Observatory
(38.5087°N, 106.9386°W)
Time: 12:17:58
(UTC-06:00)

Amateur Radio Satellites - All Passes

Search period start: 01 October 2014 11:47
Search period end: 02 October 2014 11:47
Location: Gunnison Valley Observatory, 38.5087°N, 106.9386°W

Satellite Date Start Highest point End Downlink Frequencies (MHz)
Time Altitude Azimuth
Oscar 11 01 Oct 12:09:46 12:12:17 15° 294° (WNW) 12:14:47 145.825 FM, Beacon 2401.500 USB
Oscar 16 01 Oct 12:20:49 12:22:27 11° 60° (ENE) 12:24:04 437.025 USB, Beacon 2401.1428
JAS-1B 01 Oct 12:22:04 12:23:45 11° 58° (ENE) 12:25:24 435.800 - 435.900 CW/SSB
RS-15 01 Oct 12:23:07 12:34:16 77° 243° (WSW) 12:45:55 29.354 - 29.394 USB, Beacon 29.352 USB
HO-68 01 Oct 12:32:06 12:35:05 13° 307° (NW) 12:38:03 435.675 MHz FM
FUNcube-1 01 Oct 12:34:18 12:37:39 21° 293° (WNW) 12:40:57 145.950 - 145.970 MHz USB
Oscar 19 01 Oct 13:15:14 13:19:58 37° 70° (ENE) 13:24:42 437.125 CW, 437.150 USB
ITAMSAT 1 01 Oct 13:28:58 13:32:48 21° 65° (ENE) 13:36:38 435.822 SSB
Uribyol 2 01 Oct 13:29:33 13:33:32 23° 65° (ENE) 13:37:33 436.500 FM
Saudisat 1A 01 Oct 13:33:36 13:37:14 26° 113° (ESE) 13:40:54 436.775 MHz
Oscar 16 01 Oct 13:55:49 14:01:01 87° 256° (WSW) 14:06:15 437.025 USB, Beacon 2401.1428
AO-Echo 01 Oct 14:02:43 14:07:13 49° 72° (ENE) 14:11:46 ?
JAS-1B 01 Oct 14:05:52 14:13:35 72° 74° (ENE) 14:20:02 435.800 - 435.900 CW/SSB
AO-27 01 Oct 14:06:10 14:11:07 48° 71° (ENE) 14:16:06 436.795 MHz FM
Gurwin Techsat 1B 01 Oct 14:33:23 14:38:20 42° 70° (ENE) 14:43:18 435.225 FM
RS-15 01 Oct 14:38:53 14:44:48 16° 262° (W) 14:50:53 29.354 - 29.394 USB, Beacon 29.352 USB
Oscar 19 01 Oct 14:55:09 14:59:21 25° 265° (W) 15:03:34 437.125 CW, 437.150 USB
TMSAT-1 01 Oct 15:01:30 15:06:39 56° 73° (ENE) 15:11:50 436.925 FM
MaSat-1 01 Oct 15:05:59 15:08:57 29° 58° (ENE) 15:11:33 437.345 MHz
ITAMSAT 1 01 Oct 15:07:02 15:11:57 45° 261° (W) 15:16:55 435.822 SSB
Uribyol 2 01 Oct 15:07:51 15:12:43 41° 261° (W) 15:17:38 436.500 FM
Saudisat 1A 01 Oct 15:12:47 15:16:41 31° 309° (NW) 15:20:37 436.775 MHz
Uosat F 01 Oct 15:26:24 15:29:18 16° 63° (ENE) 15:32:12 435.120 FM
Oscar 10/S400 01 Oct 15:37:18 15:55:12 42° 152° (SSE) 16:20:03 145.825 - 145.975 CW/USB, Beacon 145.810 USB
AO-7 01 Oct 15:42:12 15:49:56 46° 64° (ENE) 15:57:40 29.400 - 29.500 MHz
AO-Echo 01 Oct 15:43:37 15:46:17 15° 268° (W) 15:48:58 ?
AO-27 01 Oct 15:47:18 15:50:52 19° 267° (W) 15:54:28 436.795 MHz FM
JAS-1B 01 Oct 15:59:30 16:04:27 18° 266° (W) 16:08:57 435.800 - 435.900 CW/SSB
KITSAT 1 01 Oct 16:00:20 16:06:18 23° 104° (ESE) 16:12:16 435.175 FM
Gurwin Techsat 1B 01 Oct 16:14:20 16:18:26 23° 266° (W) 16:22:33 435.225 FM
TMSAT-1 01 Oct 16:43:37 16:46:54 17° 268° (W) 16:50:12 436.925 FM
Uosat F 01 Oct 17:02:39 17:07:34 60° 259° (WSW) 17:12:31 435.120 FM
OPAL 01 Oct 17:14:49 17:18:44 22° 96° (E) 17:22:35 ?
Sapphire 01 Oct 17:30:30 17:33:11 14° 43° (NE) 17:35:51 437.095 MHz 1200 baud AX-25 AFSK
Hamsat 01 Oct 17:30:34 17:34:13 27° 70° (ENE) 17:37:52 145.90 MHz
AO-7 01 Oct 17:35:10 17:42:44 39° 261° (W) 17:50:21 29.400 - 29.500 MHz
JAS-2 01 Oct 17:52:38 17:57:43 64° 73° (ENE) 18:03:05 435.800 - 435.900 CW/SSB, 435.910 FM
KITSAT 1 01 Oct 17:52:51 18:00:54 72° 301° (WNW) 18:09:00 435.175 FM
PCSat 01 Oct 17:55:02 17:59:12 22° 49° (NE) 18:03:21 145.825 MHz
AO-40 01 Oct 18:25:28 00:41:46 43° 183° (S) 06:34:10 Beacon 2401.320
SO-50 01 Oct 18:37:09 18:40:37 23° 111° (ESE) 18:44:10 436.795 FM
OPAL 01 Oct 18:52:59 18:57:44 40° 292° (WNW) 19:02:23 ?
Hamsat 01 Oct 19:06:37 19:10:07 24° 265° (W) 19:13:36 145.90 MHz
PANSAT 01 Oct 19:11:24 19:11:39 10° 163° (SSE) 19:11:54 not established
Sapphire 01 Oct 19:12:00 19:17:27 82° 62° (ENE) 19:22:53 437.095 MHz 1200 baud AX-25 AFSK
SO-67 01 Oct 19:16:17 19:19:38 54° 76° (ENE) 19:23:01 435.3500 MHz FM
HO-68 01 Oct 19:25:03 19:28:24 14° 53° (NE) 19:31:46 435.675 MHz FM
PCSat 01 Oct 19:37:40 19:42:57 55° 247° (WSW) 19:48:13 145.825 MHz
JAS-2 01 Oct 19:41:11 19:43:27 13° 271° (W) 19:45:46 435.800 - 435.900 CW/SSB, 435.910 FM
KITSAT 1 01 Oct 19:52:26 19:57:50 19° 324° (NW) 20:03:15 435.175 FM
STRAND 1 01 Oct 19:55:12 20:00:21 72° 102° (ESE) 20:05:29 ?
SO-50 01 Oct 20:16:48 20:20:56 36° 308° (NW) 20:25:12 436.795 FM
UOSAT-12 01 Oct 20:40:24 20:44:34 35° 114° (ESE) 20:48:50 437.025 FM, 437.400 FM
PANSAT 01 Oct 20:48:30 20:51:07 18° 175° (S) 20:53:45 not established
Sapphire 01 Oct 20:58:17 21:00:06 12° 258° (WSW) 21:01:54 437.095 MHz 1200 baud AX-25 AFSK
HO-68 01 Oct 21:07:49 21:14:55 76° 72° (ENE) 21:22:05 435.675 MHz FM
Oscar 11 01 Oct 21:26:07 21:29:55 30° 70° (ENE) 21:33:43 145.825 FM, Beacon 2401.500 USB
STRAND 1 01 Oct 21:36:22 21:38:55 14° 299° (WNW) 21:41:27 ?
ISS 01 Oct 21:48:18 21:51:30 47° 136° (SE) 21:54:43 145.800 FM
FUNcube-1 01 Oct 21:52:29 21:56:11 25° 68° (ENE) 21:59:57 145.950 - 145.970 MHz USB
UKube-1 01 Oct 21:55:44 22:00:03 89° 76° (ENE) 22:04:25 145.840 MHz, 145.915 MHz
Saudisat 1A 01 Oct 22:01:43 22:04:38 17° 45° (NE) 22:07:32 436.775 MHz
UOSAT-12 01 Oct 22:20:51 22:24:46 27° 311° (NW) 22:28:46 437.025 FM, 437.400 FM
PANSAT 01 Oct 22:28:12 22:30:40 16° 188° (S) 22:33:07 not established
ZACube-1 01 Oct 22:36:52 22:41:23 77° 76° (ENE) 22:46:01 437.345 MHz
HO-68 01 Oct 22:58:41 23:03:16 18° 268° (W) 23:07:52 435.675 MHz FM
Oscar 11 01 Oct 23:02:42 23:06:05 22° 265° (W) 23:09:29 145.825 FM, Beacon 2401.500 USB
ISS 01 Oct 23:25:40 23:28:21 22° 333° (NNW) 23:31:02 145.800 FM
FUNcube-1 01 Oct 23:28:28 23:32:25 29° 264° (W) 23:36:27 145.950 - 145.970 MHz USB
Saudisat 1A 01 Oct 23:40:13 23:44:33 57° 242° (WSW) 23:48:52 436.775 MHz
KITSAT 1 01 Oct 23:54:19 23:57:41 13° 27° (NNE) 00:01:03 435.175 FM
RS-15 02 Oct 00:38:09 00:44:28 17° 99° (E) 00:50:42 29.354 - 29.394 USB, Beacon 29.352 USB
Oscar 19 02 Oct 01:29:47 01:32:27 14° 91° (E) 01:35:06 437.125 CW, 437.150 USB
KITSAT 1 02 Oct 01:47:49 01:55:31 45° 52° (NE) 02:03:08 435.175 FM
JAS-1B 02 Oct 01:53:22 01:56:50 16° 94° (E) 02:00:29 435.800 - 435.900 CW/SSB
Oscar 16 02 Oct 02:09:21 02:14:07 37° 98° (E) 02:18:50 437.025 USB, Beacon 2401.1428
AO-Echo 02 Oct 02:11:45 02:15:19 19° 94° (E) 02:18:57 ?
AO-27 02 Oct 02:21:32 02:25:16 20° 93° (E) 02:28:59 436.795 MHz FM
ISS 02 Oct 02:42:54 02:44:01 11° 14° (NNE) 02:45:07 145.800 FM
RS-15 02 Oct 02:43:58 02:55:03 83° 118° (ESE) 03:05:59 29.354 - 29.394 USB, Beacon 29.352 USB
Gurwin Techsat 1B 02 Oct 02:51:55 02:55:35 19° 93° (E) 02:59:13 435.225 FM
Oscar 19 02 Oct 03:07:07 03:12:12 62° 287° (WNW) 03:17:13 437.125 CW, 437.150 USB
SO-50 02 Oct 03:09:39 03:13:02 19° 45° (NE) 03:16:25 436.795 FM
TMSAT-1 02 Oct 03:19:23 03:23:43 25° 95° (E) 03:28:02 436.925 FM
ITAMSAT 1 02 Oct 03:21:02 03:26:16 74° 103° (ESE) 03:31:29 435.822 SSB
Uribyol 2 02 Oct 03:21:39 03:26:54 80° 103° (ESE) 03:32:07 436.500 FM
JAS-1B 02 Oct 03:42:15 03:47:52 61° 287° (WNW) 03:54:01 435.800 - 435.900 CW/SSB
KITSAT 1 02 Oct 03:43:25 03:50:48 41° 251° (WSW) 03:58:09 435.175 FM
AO-7 02 Oct 03:47:59 03:51:41 13° 89° (E) 03:55:23 29.400 - 29.500 MHz
Oscar 16 02 Oct 03:49:07 03:53:15 25° 294° (WNW) 03:57:22 437.025 USB, Beacon 2401.1428
AO-Echo 02 Oct 03:49:26 03:54:15 47° 288° (WNW) 03:59:12 ?
AO-27 02 Oct 03:59:59 04:04:59 47° 289° (WNW) 04:09:58 436.795 MHz FM
ISS 02 Oct 04:18:19 04:21:27 38° 33° (NNE) 04:24:35 145.800 FM
OPAL 02 Oct 04:27:52 04:32:35 36° 67° (ENE) 04:37:18 ?
Gurwin Techsat 1B 02 Oct 04:30:41 04:35:48 50° 288° (WNW) 04:40:55 435.225 FM
MaSat-1 02 Oct 04:47:22 04:51:08 23° 105° (ESE) 04:54:48 437.345 MHz
SO-50 02 Oct 04:49:12 04:53:59 62° 242° (WSW) 04:58:47 436.795 FM
TMSAT-1 02 Oct 04:58:50 05:03:42 38° 290° (WNW) 05:08:32 436.925 FM
RS-15 02 Oct 04:59:21 05:08:42 31° 323° (NW) 05:18:07 29.354 - 29.394 USB, Beacon 29.352 USB
ITAMSAT 1 02 Oct 05:02:32 05:05:06 14° 299° (WNW) 05:07:40 435.822 SSB
Uribyol 2 02 Oct 05:03:25 05:05:40 13° 300° (WNW) 05:07:54 436.500 FM
JAS-2 02 Oct 05:05:53 05:06:53 10° 88° (E) 05:07:54 435.800 - 435.900 CW/SSB, 435.910 FM
UOSAT-12 02 Oct 05:11:27 05:15:16 24° 47° (NE) 05:19:01 437.025 FM, 437.400 FM
Uosat F 02 Oct 05:11:47 05:16:39 47° 100° (E) 05:21:29 435.120 FM
STRAND 1 02 Oct 05:35:37 05:36:25 10° 59° (ENE) 05:37:13 ?
AO-7 02 Oct 05:37:15 05:45:35 80° 107° (ESE) 05:53:54 29.400 - 29.500 MHz
ISS 02 Oct 05:55:24 05:57:58 21° 229° (SW) 06:00:33 145.800 FM
OPAL 02 Oct 06:07:06 06:11:27 27° 262° (W) 06:15:50 ?
MaSat-1 02 Oct 06:22:51 06:27:23 38° 299° (WNW) 06:31:42 437.345 MHz
JAS-2 02 Oct 06:45:49 06:52:39 71° 102° (ESE) 07:00:11 435.800 - 435.900 CW/SSB, 435.910 FM
UOSAT-12 02 Oct 06:51:08 06:55:34 42° 245° (WSW) 06:59:55 437.025 FM, 437.400 FM
Uosat F 02 Oct 06:51:30 06:55:04 20° 295° (WNW) 06:58:37 435.120 FM
Hamsat 02 Oct 06:52:48 06:56:59 67° 101° (E) 07:01:08 145.90 MHz
STRAND 1 02 Oct 07:09:42 07:14:47 88° 76° (ENE) 07:19:56 ?
RS-15 02 Oct 07:20:03 07:26:13 16° 358° (N) 07:32:28 29.354 - 29.394 USB, Beacon 29.352 USB
AO-7 02 Oct 07:31:26 07:37:28 23° 305° (NW) 07:43:31 29.400 - 29.500 MHz
Sapphire 02 Oct 08:12:47 08:14:52 12° 102° (ESE) 08:16:57 437.095 MHz 1200 baud AX-25 AFSK
SO-67 02 Oct 08:13:54 08:17:21 83° 102° (ESE) 08:20:48 435.3500 MHz FM
JAS-2 02 Oct 08:32:14 08:37:10 22° 296° (WNW) 08:42:27 435.800 - 435.900 CW/SSB, 435.910 FM
PCSat 02 Oct 08:35:48 08:40:00 24° 107° (ESE) 08:44:13 145.825 MHz
HO-68 02 Oct 08:39:42 08:43:15 14° 90° (E) 08:46:47 435.675 MHz FM
RS-15 02 Oct 09:35:00 09:44:07 28° 34° (NE) 09:53:25 29.354 - 29.394 USB, Beacon 29.352 USB
UKube-1 02 Oct 09:46:34 09:49:23 17° 94° (E) 09:52:12 145.840 MHz, 145.915 MHz
Sapphire 02 Oct 09:52:08 09:57:32 79° 298° (WNW) 10:02:59 437.095 MHz 1200 baud AX-25 AFSK
PCSat 02 Oct 10:17:56 10:23:06 45° 303° (WNW) 10:28:18 145.825 MHz
HO-68 02 Oct 10:24:33 10:31:47 89° 106° (ESE) 10:38:59 435.675 MHz FM
ZACube-1 02 Oct 10:29:00 10:31:58 17° 92° (E) 10:34:52 437.345 MHz
Oscar 11 02 Oct 10:50:35 10:54:55 75° 102° (ESE) 10:59:13 145.825 FM, Beacon 2401.500 USB
FUNcube-1 02 Oct 11:18:33 11:23:03 61° 100° (E) 11:27:25 145.950 - 145.970 MHz USB
UKube-1 02 Oct 11:21:38 11:25:43 39° 289° (WNW) 11:29:47 145.840 MHz, 145.915 MHz
Sapphire 02 Oct 11:39:22 11:41:51 13° 318° (NW) 11:44:21 437.095 MHz 1200 baud AX-25 AFSK
